Anaktuvuk Pass, AK

3:08 AM AKDT on September 29, 2016 (GMT -0800)
Anaktuvuk Pass

Weather History for PAKP - October, 2012

Change the Weather History Date:

Wednesday, October 24, 2012

  Actual Average Record
Temperature  
Mean Temperature 12 °F -  
Max Temperature 21 °F 8 °F 30 °F (2002)
Min Temperature 3 °F 0 °F -25 °F (1996)
Degree Days  
Heating Degree Days 53    
Moisture  
Dew Point 6 °F    
Average Humidity 76    
Maximum Humidity 86    
Minimum Humidity 66    
Precipitation  
Precipitation 0.00 in - - ()
Sea Level Pressure  
Sea Level Pressure 30.62 in    
Wind  
Wind Speed 5 mph (South)    
Max Wind Speed 16 mph    
Max Gust Speed 17 mph    
Visibility 9 miles    
Events      
Averages and records for this station are not official NWS values.
T = Trace of Precipitation, MM = Missing Value Source: NWS Daily Summary

Daily Weather History Graph

Daily Weather History Graph

Search for Another Location

Airport or City:

Trip Planner

Search our weather history database for the weather conditions in past years. The results will help you decide how hot, cold, wet, or windy it might be!

Date:

Astronomy

Oct. 24, 2012 Rise Set
Actual Time 9:49 AM AKDT 5:51 PM AKDT
Civil Twilight 8:47 AM AKDT 6:52 PM AKDT
Nautical Twilight 7:42 AM AKDT 7:58 PM AKDT
Astronomical Twilight 6:37 AM AKDT 9:02 PM AKDT
Moon 5:02 PM AKDT (10/24) 2:46 AM AKDT (10/24)
Length of Visible Light 10h 04m
Length of Day
8h 02m
Waxing Gibbous, 77% of the Moon is Illuminated
Oct 24
Waxing Gibbous
Oct 29
Full
Nov 6
Last Quarter
Nov 13
New
Nov 20
First Quarter

Hourly Weather History & Observations

Time (AKDT) Temp. Windchill Dew Point Humidity Pressure Visibility Wind Dir Wind Speed Gust Speed Precip Events Conditions
12:16 AM 21.2 °F 13.6 °F 15.8 °F 80% 30.60 in 10.0 mi NNE 5.8 mph - N/A   Overcast
12:36 AM 21.2 °F 12.6 °F 15.8 °F 80% 30.61 in 10.0 mi ENE 6.9 mph - N/A   Overcast
12:56 AM 21.2 °F 12.6 °F 14.0 °F 74% 30.61 in 10.0 mi NE 6.9 mph - N/A   Overcast
1:16 AM 21.2 °F 11.7 °F 14.0 °F 74% 30.60 in 10.0 mi NNE 8.1 mph - N/A   Overcast
1:36 AM 19.4 °F 11.5 °F 10.4 °F 68% 30.61 in 10.0 mi NNE 5.8 mph - N/A   Overcast
1:56 AM 17.6 °F - 10.4 °F 73% 30.61 in 10.0 mi Calm Calm - N/A   Scattered Clouds
2:16 AM 15.8 °F 10.2 °F 10.4 °F 79% 30.62 in 10.0 mi NNE 3.5 mph - N/A   Mostly Cloudy
2:36 AM 19.4 °F 9.5 °F 12.2 °F 74% 30.62 in 10.0 mi ENE 8.1 mph - N/A   Overcast
2:56 AM 19.4 °F 8.6 °F 12.2 °F 74% 30.62 in 10.0 mi NNE 9.2 mph - N/A   Overcast
3:16 AM 17.6 °F 8.2 °F 10.4 °F 73% 30.62 in 10.0 mi North 6.9 mph - N/A   Scattered Clouds
3:36 AM 15.8 °F 10.2 °F 8.6 °F 73% 30.62 in 10.0 mi North 3.5 mph - N/A   Clear
3:56 AM 15.8 °F - 8.6 °F 73% 30.62 in 10.0 mi Calm Calm - N/A   Clear
4:16 AM 14.0 °F 8.2 °F 8.6 °F 79% 30.63 in 10.0 mi South 3.5 mph - N/A   Clear
4:36 AM 14.0 °F 8.2 °F 6.8 °F 73% 30.63 in 10.0 mi NNE 3.5 mph - N/A   Clear
4:56 AM 12.2 °F 1.7 °F 6.8 °F 79% 30.63 in 10.0 mi NE 6.9 mph - N/A   Clear
5:16 AM 12.2 °F 1.7 °F 6.8 °F 79% 30.63 in 10.0 mi North 6.9 mph - N/A   Clear
5:36 AM 10.4 °F -0.4 °F 5.0 °F 79% 30.63 in 10.0 mi NNE 6.9 mph - N/A   Clear
5:56 AM 10.4 °F 4.0 °F 5.0 °F 79% 30.63 in 10.0 mi NNW 3.5 mph - N/A   Clear
6:16 AM 10.4 °F 4.0 °F 3.2 °F 73% 30.64 in 10.0 mi North 3.5 mph - N/A   Clear
6:36 AM 10.4 °F - 6.8 °F 85% 30.64 in 10.0 mi Calm Calm - N/A   Clear
6:56 AM 10.4 °F - 3.2 °F 73% 30.65 in 10.0 mi Calm Calm - N/A   Partly Cloudy
7:16 AM 8.6 °F - 3.2 °F 79% 30.65 in 10.0 mi Calm Calm - N/A   Partly Cloudy
7:36 AM 6.8 °F - 1.4 °F 79% 30.65 in 10.0 mi Calm Calm - N/A   Partly Cloudy
7:56 AM 6.8 °F - 1.4 °F 79% 30.65 in 0.8 mi Calm Calm - N/A   Overcast
8:16 AM 3.2 °F - -4.0 °F 72% 30.65 in 2.0 mi Calm Calm - N/A   Overcast
8:36 AM 5.0 °F - -0.4 °F 78% 30.65 in 1.0 mi Calm Calm - N/A   Overcast
8:56 AM 5.0 °F - -2.2 °F 72% 30.65 in 7.0 mi Calm Calm - N/A   Mostly Cloudy
9:16 AM 3.2 °F - -5.8 °F 66% 30.64 in 10.0 mi Calm Calm - N/A   Mostly Cloudy
9:36 AM 3.2 °F - -0.4 °F 85% 30.64 in 10.0 mi Calm Calm - N/A   Clear
9:56 AM 3.2 °F - -2.2 °F 78% 30.64 in 7.0 mi Calm Calm - N/A   Clear
10:16 AM 3.2 °F - -2.2 °F 78% 30.64 in 4.0 mi Calm Calm - N/A   Clear
10:36 AM 3.2 °F - -2.2 °F 78% 30.64 in 10.0 mi Calm Calm - N/A   Clear
10:56 AM 3.2 °F - -5.8 °F 66% 30.64 in 10.0 mi Calm Calm - N/A   Clear
11:16 AM 3.2 °F - -2.2 °F 78% 30.64 in 8.0 mi Calm Calm - N/A   Clear
11:36 AM 3.2 °F - -0.4 °F 85% 30.64 in 10.0 mi Calm Calm - N/A   Clear
11:56 AM 6.8 °F - 1.4 °F 79% 30.64 in 10.0 mi Calm Calm - N/A   Clear
12:16 PM 6.8 °F -2.0 °F 1.4 °F 79% 30.64 in 10.0 mi South 4.6 mph - N/A   Clear
12:36 PM 6.8 °F -0.1 °F 1.4 °F 79% 30.64 in 10.0 mi SSW 3.5 mph - N/A   Clear
12:56 PM 8.6 °F -2.6 °F 3.2 °F 79% 30.64 in 10.0 mi South 6.9 mph - N/A   Clear
1:16 PM 10.4 °F -0.4 °F 6.8 °F 85% 30.64 in 10.0 mi South 6.9 mph - N/A   Clear
1:36 PM 10.4 °F -1.5 °F 5.0 °F 79% 30.65 in 10.0 mi SSW 8.1 mph - N/A   Clear
1:56 PM 12.2 °F 0.7 °F 8.6 °F 85% 30.64 in 10.0 mi South 8.1 mph - N/A   Clear
2:16 PM 14.0 °F 2.9 °F 8.6 °F 79% 30.64 in 10.0 mi South 8.1 mph - N/A   Clear
2:36 PM 14.0 °F 2.0 °F 8.6 °F 79% 30.64 in 10.0 mi South 9.2 mph - N/A   Clear
2:56 PM 15.8 °F 2.1 °F 12.2 °F 86% 30.64 in 10.0 mi South 12.7 mph - N/A   Clear
3:16 PM 15.8 °F 3.4 °F 10.4 °F 79% 30.64 in 10.0 mi South 10.4 mph - N/A   Clear
3:36 PM 15.8 °F 4.2 °F 8.6 °F 73% 30.64 in 10.0 mi South 9.2 mph - N/A   Clear
3:56 PM 15.8 °F 6.1 °F 6.8 °F 68% 30.63 in 10.0 mi SSW 6.9 mph - N/A   Clear
4:16 PM 15.8 °F 5.1 °F 8.6 °F 73% 30.63 in 10.0 mi South 8.1 mph - N/A   Clear
4:36 PM 15.8 °F 3.4 °F 8.6 °F 73% 30.62 in 10.0 mi South 10.4 mph - N/A   Clear
4:56 PM 17.6 °F 6.4 °F 8.6 °F 68% 30.62 in 10.0 mi SSW 9.2 mph - N/A   Clear
5:16 PM 15.8 °F 6.1 °F 8.6 °F 73% 30.62 in 10.0 mi South 6.9 mph - N/A   Clear
5:36 PM 15.8 °F 5.1 °F 8.6 °F 73% 30.61 in 10.0 mi South 8.1 mph - N/A   Clear
5:56 PM 14.0 °F 3.9 °F 6.8 °F 73% 30.61 in 10.0 mi SSW 6.9 mph - N/A   Clear
6:16 PM 14.0 °F 2.9 °F 6.8 °F 73% 30.61 in 10.0 mi SSW 8.1 mph - N/A   Clear
6:36 PM 15.8 °F 5.1 °F 8.6 °F 73% 30.61 in 10.0 mi South 8.1 mph - N/A   Clear
6:56 PM 14.0 °F 1.2 °F 6.8 °F 73% 30.61 in 10.0 mi SSW 10.4 mph - N/A   Clear
7:16 PM 12.2 °F 1.7 °F 6.8 °F 79% 30.61 in 10.0 mi SSW 6.9 mph - N/A   Clear
7:36 PM 14.0 °F 2.0 °F 6.8 °F 73% 30.60 in 10.0 mi South 9.2 mph - N/A   Clear
7:56 PM 15.8 °F 5.1 °F 8.6 °F 73% 30.60 in 10.0 mi South 8.1 mph - N/A   Clear
10:16 PM 14.0 °F 1.2 °F 6.8 °F 73% 30.58 in 10.0 mi South 10.4 mph - N/A   Clear
10:36 PM 12.2 °F -1.0 °F 6.8 °F 79% 30.58 in 10.0 mi SSW 10.4 mph 17.3 mph N/A   Clear
10:56 PM 15.8 °F 0.3 °F 6.8 °F 68% 30.58 in 10.0 mi SSW 16.1 mph - N/A   Clear
11:16 PM 15.8 °F 4.2 °F 8.6 °F 73% 30.57 in 10.0 mi South 9.2 mph - N/A   Clear
11:36 PM 12.2 °F -3.1 °F 3.2 °F 67% 30.57 in 10.0 mi South 13.8 mph - N/A   Clear
11:56 PM 12.2 °F -1.8 °F 6.8 °F 79% 30.58 in 10.0 mi South 11.5 mph - N/A   Clear